Location: Pozo Laras
(27.4000°N, 113.3167°W)
Time: 14:36:28
(UTC+00:00)

Daily predictions for brighter satellites

Satellite Brightness Start Highest point End
(mag) Time Altitude Azimuth Time Altitude Azimuth Time Altitude Azimuth
ALOS 3.0 12:01:28 10° NNE 12:06:03 55° E 12:10:37 10° S
Okean 2 4.5 12:03:33 10° N 12:07:31 48° E 12:11:26 10° SSE
Cosmos 1464 Rocket 4.3 12:02:39 10° SSW 12:08:49 53° W 12:15:02 10° N
Cosmos 1263 4.4 12:09:05 10° NNW 12:11:58 45° W 12:14:51 10° SSW
FENGYUN 3A 4.1 12:07:15 10° NNE 12:12:40 69° ESE 12:18:02 10° S
Cosmos 2034 Rocket 4.0 12:07:36 10° SSW 12:13:44 71° W 12:19:52 10° N
Cosmos 1975 3.1 12:14:59 10° SSW 12:18:51 46° W 12:22:42 10° N
Cosmos 2369 3.7 12:16:19 10° NNW 12:22:03 78° WSW 12:27:45 10° SSE
